N658KP KGUP-UT25

Flight info

Callsign N658KP
Flight time 0h 40m
Altitude 10000
Route GUP V291 DODAH DCT LYNNT DCT YIKLO
Aircraft C310/L-SDFGR/S

Departure

Time 2026-04-27 05:17
Airport Gallup Municipal Airport (KGUP)

Arrival

Time 2026-04-27 05:57
Airport Monument Valley Airport (UT25)
Time Latitude Longitude Altitude Speed Heading
2026-04-27 05:07 35.51483 -108.78049 6473 ft 0 kts 68°
2026-04-27 05:11 35.51484 -108.78045 6473 ft 2 kts 72°
2026-04-27 05:12 35.51469 -108.78029 6473 ft 3 kts 158°
2026-04-27 05:12 35.51445 -108.78017 6473 ft 3 kts 159°
2026-04-27 05:12 35.51425 -108.78006 6473 ft 3 kts 143°
2026-04-27 05:12 35.51417 -108.77983 6473 ft 3 kts 72°
2026-04-27 05:13 35.51431 -108.77937 6473 ft 7 kts 70°
2026-04-27 05:13 35.51445 -108.77869 6473 ft 9 kts 76°
2026-04-27 05:13 35.51457 -108.77788 6473 ft 7 kts 132°
2026-04-27 05:13 35.51454 -108.77785 6473 ft 0 kts 152°
2026-04-27 05:16 35.51445 -108.77779 6473 ft 3 kts 157°
2026-04-27 05:16 35.51399 -108.77764 6473 ft 9 kts 178°
2026-04-27 05:16 35.51338 -108.77943 6473 ft 62 kts 253°
2026-04-27 05:16 35.51155 -108.78756 6617 ft 111 kts 252°
2026-04-27 05:17 35.50934 -108.79800 7135 ft 121 kts 255°
2026-04-27 05:17 35.50681 -108.80724 7852 ft 108 kts 248°
2026-04-27 05:17 35.50401 -108.81525 8483 ft 99 kts 245°
2026-04-27 05:17 35.50106 -108.82301 8990 ft 103 kts 246°
2026-04-27 05:18 35.49778 -108.83137 9395 ft 112 kts 245°
2026-04-27 05:18 35.49423 -108.84021 9802 ft 118 kts 245°
2026-04-27 05:18 35.49028 -108.84991 9985 ft 136 kts 245°
2026-04-27 05:18 35.48576 -108.86091 10005 ft 150 kts 245°
2026-04-27 05:19 35.48076 -108.87271 10005 ft 159 kts 243°
2026-04-27 05:19 35.47594 -108.88537 10005 ft 163 kts 249°
2026-04-27 05:19 35.47207 -108.89857 10003 ft 167 kts 252°
2026-04-27 05:19 35.46869 -108.91222 10002 ft 168 kts 254°
2026-04-27 05:20 35.46549 -108.92632 10001 ft 170 kts 255°
2026-04-27 05:20 35.46247 -108.94029 10000 ft 170 kts 255°
2026-04-27 05:20 35.45948 -108.95447 10001 ft 171 kts 255°
2026-04-27 05:20 35.45650 -108.96873 10008 ft 171 kts 255°
2026-04-27 05:21 35.45352 -108.98302 10008 ft 171 kts 255°
2026-04-27 05:21 35.45058 -108.99718 10008 ft 171 kts 255°
2026-04-27 05:21 35.44758 -109.01162 10002 ft 172 kts 255°
2026-04-27 05:21 35.44457 -109.02611 9999 ft 172 kts 255°
2026-04-27 05:22 35.44339 -109.04093 10008 ft 172 kts 267°
2026-04-27 05:22 35.44545 -109.05583 9989 ft 182 kts 298°
2026-04-27 05:22 35.45586 -109.06577 10015 ft 192 kts 318°
2026-04-27 05:22 35.46736 -109.07449 10010 ft 194 kts 319°
2026-04-27 05:23 35.47896 -109.08331 10008 ft 194 kts 319°
2026-04-27 05:23 35.49035 -109.09210 10008 ft 194 kts 319°
2026-04-27 05:23 35.50183 -109.10101 10008 ft 194 kts 319°
2026-04-27 05:23 35.51372 -109.11027 10008 ft 194 kts 319°
2026-04-27 05:24 35.52580 -109.11968 10008 ft 194 kts 319°
2026-04-27 05:24 35.53770 -109.12896 10008 ft 194 kts 319°
2026-04-27 05:24 35.54960 -109.13824 10008 ft 194 kts 319°
2026-04-27 05:24 35.56166 -109.14766 10008 ft 194 kts 319°
2026-04-27 05:25 35.57357 -109.15697 10008 ft 194 kts 319°
2026-04-27 05:25 35.58527 -109.16611 10007 ft 194 kts 319°
2026-04-27 05:25 35.59723 -109.17545 10007 ft 194 kts 319°
2026-04-27 05:25 35.60917 -109.18479 10007 ft 194 kts 319°
2026-04-27 05:26 35.62072 -109.19382 10007 ft 194 kts 319°
2026-04-27 05:26 35.63234 -109.20289 10007 ft 194 kts 319°
2026-04-27 05:26 35.64405 -109.21222 10007 ft 193 kts 318°
2026-04-27 05:26 35.65562 -109.22180 10007 ft 193 kts 317°
2026-04-27 05:27 35.66682 -109.23124 10007 ft 193 kts 317°
2026-04-27 05:27 35.67793 -109.24066 10007 ft 193 kts 317°
2026-04-27 05:27 35.68901 -109.25011 10007 ft 193 kts 317°
2026-04-27 05:27 35.70027 -109.25975 10006 ft 195 kts 317°
2026-04-27 05:28 35.71188 -109.26969 10008 ft 196 kts 316°
2026-04-27 05:28 35.72355 -109.27966 10009 ft 197 kts 317°
2026-04-27 05:28 35.73492 -109.28938 10008 ft 198 kts 317°
2026-04-27 05:28 35.74631 -109.29912 10008 ft 199 kts 317°
2026-04-27 05:29 35.75768 -109.30893 10008 ft 199 kts 317°
2026-04-27 05:29 35.76929 -109.31896 10008 ft 199 kts 317°
2026-04-27 05:29 35.78073 -109.32885 10008 ft 199 kts 317°
2026-04-27 05:29 35.79240 -109.33890 10008 ft 199 kts 317°
2026-04-27 05:30 35.80398 -109.34885 10008 ft 199 kts 317°
2026-04-27 05:30 35.81577 -109.35897 10008 ft 200 kts 317°
2026-04-27 05:30 35.82755 -109.36908 10008 ft 200 kts 317°
2026-04-27 05:30 35.83929 -109.37914 10008 ft 200 kts 317°
2026-04-27 05:31 35.85137 -109.38950 10008 ft 200 kts 317°
2026-04-27 05:31 35.86334 -109.39976 10008 ft 200 kts 317°
2026-04-27 05:31 35.87526 -109.40999 10008 ft 200 kts 317°
2026-04-27 05:31 35.88687 -109.41994 10008 ft 200 kts 317°
2026-04-27 05:32 35.89864 -109.43004 10008 ft 200 kts 317°
2026-04-27 05:32 35.91005 -109.43984 10008 ft 200 kts 317°
2026-04-27 05:32 35.92169 -109.44983 10008 ft 200 kts 317°
2026-04-27 05:32 35.93317 -109.45969 10008 ft 200 kts 317°
2026-04-27 05:33 35.94467 -109.46959 10008 ft 200 kts 317°
2026-04-27 05:33 35.95601 -109.47935 10008 ft 200 kts 317°
2026-04-27 05:33 35.96733 -109.48908 10008 ft 200 kts 317°
2026-04-27 05:33 35.97872 -109.49889 10008 ft 200 kts 317°
2026-04-27 05:34 35.99016 -109.50874 10008 ft 200 kts 317°
2026-04-27 05:34 36.00167 -109.51864 10008 ft 200 kts 317°
2026-04-27 05:34 36.01315 -109.52853 10008 ft 200 kts 317°
2026-04-27 05:34 36.02447 -109.53828 10008 ft 200 kts 317°
2026-04-27 05:35 36.03586 -109.54810 10008 ft 200 kts 317°
2026-04-27 05:35 36.04737 -109.55801 10008 ft 200 kts 317°
2026-04-27 05:35 36.05871 -109.56779 10008 ft 200 kts 317°
2026-04-27 05:35 36.07006 -109.57758 10008 ft 200 kts 317°
2026-04-27 05:36 36.08148 -109.58744 10008 ft 200 kts 317°
2026-04-27 05:36 36.09274 -109.59716 10007 ft 200 kts 317°
2026-04-27 05:36 36.10410 -109.60696 10006 ft 200 kts 317°
2026-04-27 05:36 36.11557 -109.61687 10004 ft 199 kts 317°
2026-04-27 05:37 36.12688 -109.62663 10004 ft 199 kts 317°
2026-04-27 05:37 36.13822 -109.63644 10004 ft 199 kts 317°
2026-04-27 05:37 36.14961 -109.64629 10004 ft 199 kts 317°
2026-04-27 05:37 36.16092 -109.65607 10008 ft 199 kts 317°
2026-04-27 05:38 36.17229 -109.66592 10019 ft 199 kts 317°
2026-04-27 05:38 36.18345 -109.67557 10076 ft 197 kts 317°
2026-04-27 05:38 36.19465 -109.68527 10082 ft 198 kts 317°
2026-04-27 05:38 36.20599 -109.69511 10083 ft 199 kts 317°
2026-04-27 05:39 36.21728 -109.70489 10083 ft 199 kts 317°
2026-04-27 05:39 36.22872 -109.71481 10083 ft 199 kts 317°
2026-04-27 05:39 36.23998 -109.72457 10083 ft 200 kts 317°
2026-04-27 05:39 36.25138 -109.73446 10083 ft 200 kts 317°
2026-04-27 05:40 36.26279 -109.74444 10085 ft 198 kts 319°
2026-04-27 05:40 36.27401 -109.75416 10081 ft 197 kts 319°
2026-04-27 05:40 36.28519 -109.76384 10082 ft 196 kts 319°
2026-04-27 05:40 36.29640 -109.77356 10082 ft 196 kts 319°
2026-04-27 05:41 36.30766 -109.78334 10082 ft 196 kts 319°
2026-04-27 05:41 36.31891 -109.79311 10083 ft 196 kts 318°
2026-04-27 05:41 36.32993 -109.80269 10083 ft 195 kts 318°
2026-04-27 05:41 36.34114 -109.81245 10083 ft 195 kts 318°
2026-04-27 05:42 36.35238 -109.82224 10082 ft 195 kts 319°
2026-04-27 05:42 36.36343 -109.83186 10082 ft 195 kts 318°
2026-04-27 05:42 36.37465 -109.84162 10082 ft 196 kts 318°
2026-04-27 05:42 36.38594 -109.85149 10082 ft 196 kts 319°
2026-04-27 05:43 36.39708 -109.86118 10082 ft 196 kts 318°
2026-04-27 05:43 36.40894 -109.87008 10086 ft 199 kts 327°
2026-04-27 05:43 36.42147 -109.87792 10083 ft 200 kts 328°
2026-04-27 05:43 36.43409 -109.88536 10082 ft 200 kts 328°
2026-04-27 05:44 36.44667 -109.89253 10082 ft 200 kts 329°
2026-04-27 05:44 36.45946 -109.89968 10082 ft 200 kts 329°
2026-04-27 05:44 36.47253 -109.90689 10082 ft 200 kts 329°
2026-04-27 05:44 36.48598 -109.91425 10082 ft 200 kts 329°
2026-04-27 05:45 36.49928 -109.92148 10082 ft 200 kts 329°
2026-04-27 05:45 36.51221 -109.92849 10082 ft 200 kts 329°
2026-04-27 05:45 36.52557 -109.93572 10082 ft 200 kts 329°
2026-04-27 05:45 36.53872 -109.94282 10082 ft 200 kts 330°
2026-04-27 05:46 36.55180 -109.94988 10082 ft 200 kts 330°
2026-04-27 05:46 36.56491 -109.95695 10041 ft 202 kts 330°
2026-04-27 05:46 36.57807 -109.96383 10006 ft 203 kts 330°
2026-04-27 05:46 36.59095 -109.97047 10000 ft 202 kts 330°
2026-04-27 05:47 36.60395 -109.97729 9999 ft 201 kts 330°
2026-04-27 05:47 36.61670 -109.98410 9873 ft 202 kts 330°
2026-04-27 05:47 36.62965 -109.99107 9721 ft 203 kts 330°
2026-04-27 05:47 36.64310 -109.99834 9567 ft 204 kts 330°
2026-04-27 05:48 36.65670 -110.00570 9412 ft 204 kts 330°
2026-04-27 05:48 36.66983 -110.01279 9261 ft 204 kts 330°
2026-04-27 05:48 36.68351 -110.02020 9104 ft 204 kts 330°
2026-04-27 05:48 36.69651 -110.02724 8954 ft 204 kts 330°
2026-04-27 05:49 36.70951 -110.03429 8803 ft 203 kts 331°
2026-04-27 05:49 36.72237 -110.04125 8654 ft 203 kts 331°
2026-04-27 05:49 36.73522 -110.04841 8502 ft 201 kts 327°
2026-04-27 05:49 36.74634 -110.05849 8350 ft 196 kts 312°
2026-04-27 05:50 36.75643 -110.07005 8197 ft 196 kts 313°
2026-04-27 05:50 36.76639 -110.08167 8048 ft 198 kts 313°
2026-04-27 05:50 36.77688 -110.09392 7892 ft 198 kts 314°
2026-04-27 05:50 36.78754 -110.10636 7734 ft 198 kts 314°
2026-04-27 05:51 36.79831 -110.11892 7572 ft 198 kts 314°
2026-04-27 05:51 36.80862 -110.13088 7418 ft 199 kts 315°
2026-04-27 05:51 36.82049 -110.14006 7269 ft 202 kts 331°
2026-04-27 05:51 36.83425 -110.14664 7112 ft 204 kts 340°
2026-04-27 05:52 36.84865 -110.15172 6955 ft 204 kts 342°
2026-04-27 05:52 36.86242 -110.15601 6825 ft 204 kts 343°
2026-04-27 05:52 36.87643 -110.16013 6689 ft 203 kts 343°
2026-04-27 05:52 36.89037 -110.16422 6531 ft 203 kts 344°
2026-04-27 05:53 36.90438 -110.16829 6415 ft 203 kts 344°
2026-04-27 05:53 36.91836 -110.17233 6276 ft 202 kts 343°
2026-04-27 05:53 36.93176 -110.17921 6201 ft 196 kts 337°
2026-04-27 05:53 36.94597 -110.18413 6201 ft 192 kts 343°
2026-04-27 05:54 36.95968 -110.18779 6198 ft 189 kts 346°
2026-04-27 05:54 36.97273 -110.19089 6200 ft 188 kts 346°
2026-04-27 05:54 36.98593 -110.19387 6200 ft 187 kts 347°
2026-04-27 05:54 36.99908 -110.19682 6195 ft 187 kts 347°
2026-04-27 05:55 37.01238 -110.19863 6161 ft 188 kts 353°
2026-04-27 05:55 37.02508 -110.20037 6406 ft 176 kts
2026-04-27 05:55 37.03441 -110.19166 6473 ft 167 kts 68°
2026-04-27 05:55 37.03233 -110.17909 6388 ft 145 kts 140°
2026-04-27 05:56 37.02312 -110.17492 6322 ft 129 kts 173°
2026-04-27 05:56 37.01405 -110.17440 6251 ft 125 kts 190°
2026-04-27 05:56 37.00720 -110.17852 6174 ft 109 kts 246°
2026-04-27 05:56 37.00670 -110.18788 5831 ft 111 kts 269°
2026-04-27 05:57 37.00701 -110.19722 5535 ft 105 kts 280°
2026-04-27 05:57 37.01181 -110.20155 5197 ft 86 kts 350°
2026-04-27 05:57 37.01690 -110.20216 5135 ft 40 kts 353°
2026-04-27 05:57 37.01858 -110.20239 5121 ft 18 kts 359°
2026-04-27 05:58 37.01919 -110.20250 5116 ft 2 kts 223°
2026-04-27 05:58 37.01900 -110.20245 5117 ft 6 kts 165°
2026-04-27 05:58 37.01865 -110.20238 5120 ft 3 kts 174°
2026-04-27 05:58 37.01841 -110.20234 5122 ft 4 kts 173°
2026-04-27 05:59 37.01799 -110.20228 5125 ft 7 kts 174°
2026-04-27 05:59 37.01755 -110.20223 5129 ft 6 kts 173°
2026-04-27 05:59 37.01694 -110.20215 5134 ft 11 kts 174°
2026-04-27 05:59 37.01613 -110.20203 5142 ft 12 kts 174°
2026-04-27 06:00 37.01369 -110.20173 5157 ft 20 kts 175°
2026-04-27 06:00 37.01230 -110.20153 5169 ft 19 kts 174°
2026-04-27 06:00 37.01104 -110.20140 5181 ft 16 kts 189°
2026-04-27 06:01 37.01054 -110.20184 5189 ft 2 kts 159°
2026-04-27 06:01 37.01053 -110.20172 5188 ft 0 kts 70°